Location: Little Chesterford
(52.0500°N, 0.1833°E)
Time: 19:34:55
(UTC+00:00)

Cosmos 2181 Rocket - Pass Details

Date: 26 September 2023
Orbit: 952 x 1014 km, 82.9° (Epoch: 08 December)

Event Time Altitude Azimuth Distance (km) Brightness Sun altitude
Rises 19:18:16 0° 193° (SSW) 3,736 7.0 -14.4°
Reaches altitude 10° 19:20:49 10° 194° (SSW) 2,786 6.4 -14.8°
Maximum altitude 19:27:14 77° 281° (W) 1,033 4.2 -15.7°
Drops below altitude 10° 19:33:38 10° 8° (N) 2,771 6.5 -16.6°
Sets 19:36:10 0° 10° (N) 3,715 7.2 -17.0°
